CW0146 Weather Reports


Display with metric or nautical units.
time (UTC)temp
F
wind
direction
speed
MPH
gust
MPH
rain 1hr
in
rain 24hr
in
rain mn
in
humidity
%
barometer
mb
20260905103954 76 28 0.0 1.0 0.00 0.00 0.00 93 1014.0
20260905103456 76 39 0.0 2.0 0.00 0.00 0.00 92 1014.0
20260905102954 76 356 0.0 1.0 0.00 0.00 0.00 92 1014.0
20260905102454 77 253 0.0 1.0 0.00 0.00 0.00 92 1014.0
20260905101954 77 26 0.0 1.0 0.00 0.00 0.00 92 1014.0
20260905101454 77 258 0.0 1.0 0.00 0.00 0.00 91 1014.0
20260905100954 77 78 0.0 1.0 0.00 0.00 0.00 91 1014.0
20260905100454 77 215 0.0 1.0 0.00 0.00 0.00 91 1013.0
20260905095955 77 334 0.0 0.0 0.00 0.00 0.00 91 1013.0
20260905095454 77 95 0.0 0.0 0.00 0.00 0.00 91 1013.0
20260905094954 77 72 0.0 1.0 0.00 0.00 0.00 91 1014.0
20260905094454 77 354 0.0 1.0 0.00 0.00 0.00 90 1013.0
20260905093954 77 49 0.0 1.0 0.00 0.00 0.00 90 1013.0
20260905093454 78 232 0.0 1.0 0.00 0.00 0.00 90 1014.0
20260905092954 78 341 0.0 1.0 0.00 0.00 0.00 90 1014.0
20260905092454 78 161 0.0 1.0 0.00 0.00 0.00 89 1014.0
20260905091954 78 278 0.0 2.0 0.00 0.00 0.00 89 1014.0
20260905091454 78 114 0.0 1.0 0.00 0.00 0.00 89 1014.0
20260905090954 78 209 1.0 2.0 0.00 0.00 0.00 88 1014.0
20260905090457 78 187 1.0 2.0 0.00 0.00 0.00 88 1014.0
20260905085954 78 211 1.0 2.0 0.00 0.00 0.00 88 1014.0
20260905085455 78 189 2.0 4.0 0.00 0.00 0.00 88 1014.0
20260905084954 78 177 2.0 3.0 0.00 0.00 0.00 88 1014.0
20260905084454 78 187 2.0 3.0 0.00 0.00 0.00 88 1014.0
20260905083954 78 177 2.0 3.0 0.00 0.00 0.00 88 1014.0
20260905083454 78 183 3.0 4.0 0.00 0.00 0.00 88 1014.0
20260905082954 78 170 2.0 5.0 0.00 0.00 0.00 88 1014.0
20260905082454 78 230 1.0 2.0 0.00 0.00 0.00 88 1014.0
20260905081954 78 199 2.0 3.0 0.00 0.00 0.00 88 1014.0
20260905081454 78 167 2.0 4.0 0.00 0.00 0.00 88 1014.0
20260905081004 78 200 1.0 2.0 0.00 0.00 0.00 88 1014.0
20260905080454 78 192 3.0 4.0 0.00 0.00 0.00 88 1014.0
20260905075955 78 201 1.0 2.0 0.00 0.00 0.00 87 1014.0
20260905075454 78 46 0.0 2.0 0.00 0.00 0.00 87 1014.0
20260905074955 78 183 2.0 5.0 0.00 0.00 0.00 87 1014.0
20260905074454 78 39 1.0 3.0 0.00 0.00 0.00 86 1014.0
20260905073954 78 141 1.0 2.0 0.00 0.00 0.00 86 1014.0
20260905073454 78 162 2.0 3.0 0.00 0.00 0.00 86 1014.0
20260905072955 78 175 0.0 1.0 0.00 0.00 0.00 85 1014.0
20260905072455 79 182 1.0 2.0 0.00 0.00 0.00 85 1014.0
20260905071954 79 187 1.0 2.0 0.00 0.00 0.00 85 1014.0
20260905071454 79 221 1.0 2.0 0.00 0.00 0.00 84 1014.0
20260905070953 79 57 0.0 2.0 0.00 0.00 0.00 84 1014.0
20260905070454 79 171 1.0 2.0 0.00 0.00 0.00 83 1014.0
20260905065954 79 201 1.0 3.0 0.00 0.00 0.00 83 1014.0
20260905065454 79 191 3.0 5.0 0.00 0.00 0.00 83 1014.0
20260905064954 79 194 2.0 3.0 0.00 0.00 0.00 83 1014.0
20260905064454 79 163 1.0 1.0 0.00 0.00 0.00 83 1014.0
20260905063955 79 225 0.0 1.0 0.00 0.00 0.00 82 1014.0
20260905063454 79 175 1.0 2.0 0.00 0.00 0.00 82 1014.0
20260905062954 79 200 2.0 3.0 0.00 0.00 0.00 82 1014.0
20260905062454 79 165 1.0 2.0 0.00 0.00 0.00 82 1014.0
20260905061954 80 203 1.0 1.0 0.00 0.00 0.00 81 1014.0
20260905061454 80 324 0.0 2.0 0.00 0.00 0.00 81 1014.0
20260905060954 80 184 1.0 3.0 0.00 0.00 0.00 81 1014.0
20260905060455 80 161 1.0 2.0 0.00 0.00 0.00 80 1014.0
20260905055955 80 56 1.0 4.0 0.00 0.00 0.00 80 1014.0
20260905055454 80 96 1.0 2.0 0.00 0.00 0.00 80 1014.0
20260905054954 80 331 1.0 2.0 0.00 0.00 0.00 80 1014.0
20260905054454 80 233 1.0 2.0 0.00 0.00 0.00 79 1014.0
20260905053954 80 58 2.0 5.0 0.00 0.00 0.00 79 1014.0
20260905053454 80 198 1.0 2.0 0.00 0.00 0.00 79 1014.0
20260905052954 80 79 1.0 2.0 0.00 0.00 0.00 79 1014.0
20260905052454 80 137 1.0 2.0 0.00 0.00 0.00 79 1014.0
20260905051954 80 88 1.0 4.0 0.00 0.00 0.00 79 1014.0
20260905051454 80 338 1.0 2.0 0.00 0.00 0.00 78 1014.0
20260905050954 80 354 1.0 2.0 0.00 0.00 0.00 78 1014.0
20260905050454 80 336 1.0 2.0 0.00 0.00 0.00 78 1014.0
20260905045954 80 209 2.0 4.0 0.00 0.00 0.32 79 1014.0
20260905045454 80 275 1.0 2.0 0.00 0.00 0.32 80 1014.0
20260905044955 80 302 1.0 2.0 0.00 0.00 0.32 80 1014.0
20260905044454 80 266 1.0 1.0 0.00 0.00 0.32 80 1014.0
20260905043954 80 217 1.0 1.0 0.00 0.00 0.32 80 1014.0
20260905043454 80 73 1.0 2.0 0.00 0.00 0.32 79 1014.0
20260905042954 80 340 1.0 2.0 0.00 0.00 0.32 79 1014.0
20260905042454 80 13 0.0 1.0 0.00 0.00 0.32 80 1014.0
20260905041954 80 306 1.0 2.0 0.00 0.00 0.32 80 1014.0
20260905041454 80 321 1.0 3.0 0.00 0.00 0.32 81 1014.0
20260905040956 80 314 0.0 1.0 0.00 0.00 0.32 80 1014.0
20260905040454 80 312 1.0 2.0 0.00 0.00 0.32 81 1014.0
20260905035954 80 337 1.0 1.0 0.00 0.00 0.32 81 1014.0
20260905035454 80 7 1.0 2.0 0.00 0.00 0.32 81 1014.0
20260905034954 80 339 1.0 2.0 0.00 0.00 0.32 82 1014.0
20260905034454 80 355 1.0 2.0 0.00 0.00 0.32 82 1014.0
20260905033954 80 330 1.0 2.0 0.00 0.00 0.32 81 1014.0
20260905033454 80 1 1.0 1.0 0.00 0.00 0.32 81 1014.0
20260905032955 80 36 0.0 2.0 0.00 0.00 0.32 81 1014.0
20260905032454 80 50 1.0 2.0 0.00 0.00 0.32 81 1014.0
20260905031954 80 332 1.0 2.0 0.00 0.00 0.32 81 1014.0
20260905031454 81 350 0.0 1.0 0.00 0.00 0.32 81 1014.0
20260905030954 81 60 1.0 2.0 0.00 0.00 0.32 80 1014.0
20260905030454 81 64 0.0 1.0 0.00 0.00 0.32 80 1014.0
20260905025954 81 53 1.0 1.0 0.00 0.00 0.32 79 1014.0
20260905025455 81 79 0.0 1.0 0.00 0.00 0.32 79 1014.0
20260905024954 81 96 0.0 2.0 0.00 0.00 0.32 78 1014.0
20260905024454 82 75 1.0 2.0 0.00 0.00 0.32 78 1014.0
20260905023955 81 52 0.0 1.0 0.00 0.00 0.32 78 1014.0
20260905023454 81 98 1.0 1.0 0.00 0.00 0.32 79 1014.0
20260905022955 81 46 1.0 1.0 0.00 0.00 0.32 79 1014.0
20260905022454 81 49 0.0 1.0 0.00 0.00 0.32 79 1014.0
20260905021954 81 60 0.0 1.0 0.00 0.00 0.32 79 1014.0
20260905021454 81 55 0.0 1.0 0.00 0.00 0.32 80 1014.0
20260905020955 81 25 0.0 2.0 0.00 0.00 0.32 80 1013.0
20260905020454 81 76 1.0 1.0 0.00 0.00 0.32 80 1013.0
20260905015954 81 81 1.0 1.0 0.00 0.00 0.32 79 1013.0
20260905015454 81 82 0.0 1.0 0.00 0.00 0.32 80 1013.0
20260905014954 81 63 0.0 2.0 0.00 0.00 0.32 81 1013.0
20260905014454 81 83 1.0 2.0 0.00 0.00 0.32 82 1013.0
20260905013954 81 63 0.0 1.0 0.00 0.00 0.32 82 1013.0
20260905013454 81 97 0.0 2.0 0.00 0.00 0.32 83 1013.0
20260905012954 81 81 0.0 0.0 0.00 0.00 0.32 83 1013.0
20260905012454 81 29 0.0 1.0 0.00 0.00 0.32 83 1013.0
20260905011956 81 42 0.0 2.0 0.00 0.00 0.32 82 1013.0
20260905011454 81 55 1.0 2.0 0.00 0.00 0.32 83 1013.0
20260905010955 81 52 1.0 1.0 0.00 0.00 0.32 84 1013.0
20260905010454 81 39 1.0 3.0 0.00 0.00 0.32 84 1013.0
20260905005954 81 51 1.0 1.0 0.00 0.00 0.31 84 1013.0
20260905005454 81 53 1.0 2.0 0.00 0.00 0.31 84 1013.0
20260905004954 81 45 1.0 4.0 0.00 0.00 0.31 83 1013.0
20260905004455 81 57 1.0 2.0 0.00 0.00 0.31 83 1013.0
20260905003954 82 61 1.0 2.0 0.00 0.00 0.31 83 1013.0
20260905003454 82 41 1.0 6.0 0.00 0.00 0.31 83 1013.0
20260905002954 82 52 1.0 2.0 0.00 0.00 0.31 84 1013.0
20260905002454 82 44 1.0 2.0 0.00 0.00 0.31 83 1013.0
20260905001954 82 76 1.0 3.0 0.00 0.00 0.32 83 1013.0
20260905001503 82 84 0.0 1.0 0.00 0.00 0.32 83 1012.0
20260905000954 81 79 0.0 1.0 0.00 0.00 0.32 85 1012.0
20260905000455 81 95 0.0 1.0 0.00 0.00 0.32 87 1012.0
20260904235954 80 54 0.0 2.0 0.00 0.00 0.33 87 1013.0
20260904235454 80 79 1.0 2.0 0.00 0.00 0.33 88 1013.0
20260904234954 80 71 0.0 1.0 0.00 0.00 0.33 89 1013.0
20260904234454 79 72 0.0 1.0 0.00 0.00 0.33 89 1013.0
20260904233954 79 360 0.0 0.0 0.00 0.00 0.33 90 1013.0
20260904233454 79 78 1.0 2.0 0.00 0.00 0.33 89 1012.0
20260904232954 78 43 0.0 2.0 0.00 0.00 0.33 89 1012.0
20260904232454 78 75 1.0 3.0 0.00 0.00 0.31 89 1013.0
20260904231954 78 33 0.0 1.0 0.00 0.00 0.31 89 1013.0
20260904231455 78 23 0.0 2.0 0.00 0.00 0.31 88 1013.0
20260904230955 78 235 1.0 3.0 0.02 0.00 0.31 87 1013.0
20260904230454 78 229 1.0 3.0 0.08 0.00 0.34 86 1013.0
20260904225955 78 194 1.0 2.0 0.23 0.00 0.33 85 1013.0
20260904225456 80 103 3.0 6.0 1.31 0.00 0.28 83 1013.0
20260904224954 84 92 3.0 5.0 1.68 0.00 0.14 77 1013.0
20260904224500 88 100 4.0 7.0 0.55 0.00 0.06 71 1013.0
20260904223954 92 97 3.0 5.0 0.00 0.00 0.04 56 1012.0
20260904223455 94 97 2.0 6.0 0.00 0.00 0.04 54 1012.0
20260904222954 96 162 3.0 7.0 0.00 0.00 0.04 46 1012.0
20260904222454 96 188 2.0 4.0 0.00 0.00 0.04 47 1012.0
20260904221954 96 177 3.0 5.0 0.00 0.00 0.04 47 1012.0
20260904221454 97 177 3.0 6.0 0.00 0.00 0.04 46 1012.0
20260904220955 96 140 2.0 4.0 0.00 0.00 0.04 45 1012.0
20260904220454 96 179 2.0 4.0 0.00 0.00 0.04 45 1012.0
20260904215955 96 190 2.0 4.0 0.00 0.00 0.04 47 1012.0
20260904215454 95 169 3.0 5.0 0.00 0.00 0.04 47 1012.0
20260904214954 95 179 3.0 4.0 0.00 0.00 0.04 45 1012.0
20260904214455 95 171 4.0 6.0 0.00 0.00 0.04 46 1012.0
20260904213954 95 182 3.0 7.0 0.00 0.00 0.04 47 1012.0
20260904213454 95 183 3.0 5.0 0.00 0.00 0.04 47 1012.0
20260904212955 95 177 5.0 7.0 0.00 0.00 0.04 46 1013.0
20260904212454 94 143 2.0 4.0 0.00 0.00 0.04 47 1013.0
20260904211954 94 172 4.0 6.0 0.00 0.00 0.04 47 1013.0
20260904211454 94 182 5.0 9.0 0.00 0.00 0.04 46 1013.0
20260904210954 94 178 3.0 4.0 0.00 0.00 0.04 47 1013.0
20260904210454 93 194 2.0 4.0 0.00 0.00 0.04 49 1013.0
20260904205955 93 172 4.0 6.0 0.00 0.00 0.04 50 1013.0
20260904205455 94 185 4.0 5.0 0.00 0.00 0.04 49 1013.0
20260904204954 94 195 2.0 4.0 0.00 0.00 0.04 50 1013.0
20260904204455 94 172 4.0 5.0 0.00 0.00 0.04 48 1013.0
20260904203955 94 167 4.0 6.0 0.00 0.00 0.04 49 1013.0
20260904203456 94 172 3.0 6.0 0.00 0.00 0.04 49 1013.0
20260904202955 94 176 3.0 6.0 0.00 0.00 0.04 49 1013.0
20260904202454 93 183 2.0 4.0 0.00 0.00 0.04 50 1013.0
20260904201954 93 186 2.0 4.0 0.00 0.00 0.04 51 1013.0
20260904201454 92 157 2.0 4.0 0.00 0.00 0.04 52 1013.0
20260904200954 92 169 3.0 6.0 0.00 0.00 0.04 54 1014.0
20260904200455 92 178 3.0 7.0 0.00 0.00 0.04 53 1014.0
20260904195954 92 131 1.0 2.0 0.00 0.00 0.04 54 1014.0
20260904195454 92 186 2.0 3.0 0.00 0.00 0.04 55 1014.0
20260904194954 92 171 3.0 6.0 0.00 0.00 0.04 55 1014.0
20260904194454 92 176 4.0 7.0 0.00 0.00 0.04 55 1014.0
20260904193954 91 173 4.0 9.0 0.00 0.00 0.04 54 1014.0
20260904193455 91 175 3.0 4.0 0.00 0.00 0.04 55 1014.0
20260904192955 91 185 3.0 8.0 0.00 0.00 0.04 55 1014.0
20260904192454 90 150 3.0 5.0 0.00 0.00 0.04 56 1014.0
20260904191954 90 183 4.0 8.0 0.00 0.00 0.04 55 1014.0
20260904191455 90 162 3.0 7.0 0.00 0.00 0.04 60 1014.0
20260904190954 90 187 4.0 6.0 0.00 0.00 0.04 58 1014.0
20260904190454 89 180 4.0 6.0 0.00 0.00 0.04 61 1014.0
20260904185954 88 137 2.0 2.0 0.00 0.00 0.04 61 1014.0
20260904185454 88 182 2.0 4.0 0.00 0.00 0.04 63 1014.0
20260904184956 87 188 2.0 5.0 0.00 0.00 0.04 63 1015.0
20260904184454 87 159 2.0 6.0 0.00 0.00 0.04 64 1015.0
20260904183955 87 175 2.0 5.0 0.00 0.00 0.04 64 1015.0
20260904183454 87 177 3.0 6.0 0.00 0.00 0.04 64 1015.0
20260904182954 87 182 2.0 3.0 0.00 0.00 0.04 65 1015.0
20260904182455 87 175 3.0 6.0 0.00 0.00 0.04 66 1015.0
20260904181954 87 170 3.0 6.0 0.00 0.00 0.04 66 1015.0
20260904181454 87 189 3.0 6.0 0.00 0.00 0.04 65 1015.0
20260904180954 86 170 3.0 5.0 0.00 0.00 0.04 66 1015.0
20260904180454 87 160 3.0 7.0 0.00 0.00 0.04 65 1015.0
20260904175954 87 178 3.0 5.0 0.00 0.00 0.04 65 1015.0
20260904175454 86 171 4.0 7.0 0.00 0.00 0.04 65 1015.0
20260904174955 87 177 2.0 4.0 0.00 0.00 0.04 65 1015.0
20260904174454 87 169 3.0 5.0 0.00 0.00 0.04 59 1015.0
20260904173954 87 179 2.0 4.0 0.00 0.00 0.04 62 1015.0
20260904173454 87 155 1.0 2.0 0.00 0.00 0.04 62 1015.0
20260904172956 87 172 3.0 7.0 0.00 0.00 0.04 63 1015.0
20260904172457 87 150 1.0 3.0 0.00 0.00 0.04 67 1015.0
20260904171955 87 156 2.0 5.0 0.00 0.00 0.04 70 1015.0
20260904171455 87 164 2.0 3.0 0.00 0.00 0.04 69 1015.0
20260904170955 86 189 2.0 4.0 0.00 0.00 0.04 69 1015.0
20260904170457 86 175 3.0 4.0 0.00 0.00 0.04 70 1015.0
20260904165954 86 179 3.0 4.0 0.00 0.00 0.04 69 1015.0
20260904165455 86 173 3.0 6.0 0.00 0.00 0.04 70 1015.0
20260904164956 86 185 2.0 3.0 0.00 0.00 0.04 71 1015.0
20260904164454 86 136 1.0 2.0 0.00 0.00 0.04 70 1015.0
20260904163955 86 168 2.0 5.0 0.00 0.00 0.04 71 1015.0
20260904163454 86 168 2.0 3.0 0.00 0.00 0.04 71 1015.0
20260904162954 85 218 1.0 3.0 0.00 0.00 0.04 71 1015.0
20260904162455 85 166 2.0 3.0 0.00 0.00 0.04 72 1015.0
20260904161958 85 181 2.0 6.0 0.00 0.00 0.04 72 1015.0
20260904161454 85 182 3.0 5.0 0.00 0.00 0.04 72 1015.0
20260904160954 85 207 2.0 4.0 0.00 0.00 0.04 73 1015.0
20260904160455 85 169 2.0 3.0 0.00 0.00 0.04 73 1015.0
20260904155954 85 176 3.0 6.0 0.00 0.00 0.04 72 1015.0
20260904155454 85 167 4.0 7.0 0.00 0.00 0.04 72 1015.0
20260904154955 85 198 2.0 5.0 0.00 0.00 0.04 74 1015.0
20260904154454 85 190 2.0 4.0 0.00 0.00 0.04 74 1015.0
20260904153954 85 177 2.0 4.0 0.00 0.00 0.04 74 1015.0
20260904153455 85 172 4.0 6.0 0.00 0.00 0.04 74 1015.0
20260904152956 85 171 4.0 6.0 0.00 0.00 0.04 74 1015.0
20260904152456 84 195 2.0 4.0 0.00 0.00 0.04 76 1015.0
20260904151954 84 207 2.0 3.0 0.00 0.00 0.04 77 1015.0
20260904151455 84 181 4.0 7.0 0.00 0.00 0.04 76 1015.0
20260904150956 84 181 3.0 5.0 0.00 0.00 0.04 77 1015.0
20260904150454 84 166 3.0 6.0 0.00 0.00 0.04 77 1015.0
20260904145955 83 216 2.0 6.0 0.00 0.00 0.04 80 1015.0
20260904145456 82 200 2.0 3.0 0.00 0.00 0.04 81 1015.0
20260904144955 82 218 2.0 4.0 0.00 0.00 0.04 81 1015.0
20260904144454 82 201 2.0 4.0 0.00 0.00 0.04 81 1015.0
20260904143954 82 199 2.0 3.0 0.00 0.00 0.04 83 1015.0
20260904143455 81 174 2.0 5.0 0.00 0.00 0.04 84 1015.0
20260904142955 81 192 2.0 4.0 0.00 0.00 0.04 85 1015.0
20260904142455 81 171 2.0 4.0 0.00 0.00 0.04 85 1015.0
20260904141956 81 206 2.0 4.0 0.00 0.00 0.04 87 1015.0
20260904141454 81 192 1.0 2.0 0.00 0.00 0.04 87 1015.0
20260904140955 81 243 1.0 3.0 0.00 0.00 0.04 88 1015.0
20260904140454 81 194 2.0 4.0 0.00 0.00 0.04 88 1015.0
20260904135954 81 175 1.0 2.0 0.00 0.00 0.04 89 1015.0
20260904135454 80 205 2.0 4.0 0.00 0.00 0.04 90 1015.0
20260904134954 80 259 1.0 2.0 0.00 0.00 0.04 90 1015.0
20260904134455 80 221 1.0 3.0 0.00 0.00 0.04 91 1015.0
20260904133955 80 214 2.0 4.0 0.00 0.00 0.04 91 1015.0
20260904133500 80 196 2.0 3.0 0.00 0.00 0.04 92 1015.0
20260904132954 79 180 0.0 1.0 0.00 0.00 0.04 92 1015.0
20260904132454 79 248 1.0 2.0 0.00 0.00 0.04 92 1015.0
20260904131955 79 167 1.0 2.0 0.00 0.00 0.05 93 1015.0
20260904131454 79 194 1.0 2.0 0.00 0.00 0.05 93 1015.0
20260904130954 79 215 2.0 4.0 0.00 0.00 0.05 93 1014.0
20260904130454 79 174 2.0 5.0 0.00 0.00 0.05 93 1014.0
20260904125955 79 175 0.0 2.0 0.00 0.00 0.05 92 1015.0
20260904125454 79 200 2.0 2.0 0.04 0.00 0.05 92 1014.0
20260904124954 79 182 2.0 3.0 0.01 0.00 0.04 92 1014.0
20260904124456 79 171 2.0 4.0 0.00 0.00 0.04 92 1015.0
20260904123954 79 187 0.0 2.0 0.00 0.00 0.04 92 1015.0
20260904123454 79 172 1.0 2.0 0.05 0.00 0.03 92 1015.0
20260904122954 79 176 0.0 2.0 0.05 0.00 0.03 91 1015.0
20260904122454 79 216 0.0 1.0 0.06 0.00 0.02 91 1015.0
20260904121954 79 318 0.0 1.0 0.05 0.00 0.02 91 1015.0
20260904121455 79 98 0.0 1.0 0.02 0.00 0.02 91 1014.0
20260904120954 79 165 0.0 1.0 0.00 0.00 0.02 90 1014.0
20260904120454 79 202 1.0 3.0 0.00 0.00 0.01 90 1014.0
20260904115955 79 108 2.0 3.0 0.01 0.00 0.01 89 1014.0
20260904115454 79 145 0.0 2.0 0.05 0.00 0.01 89 1014.0
20260904114954 79 122 0.0 2.0 0.07 0.00 0.00 89 1014.0
20260904114455 79 93 0.0 1.0 0.00 0.00 0.00 89 1014.0
20260904113954 79 90 0.0 1.0 0.00 0.00 0.00 89 1014.0
20260904113454 79 88 1.0 2.0 0.00 0.00 0.00 88 1014.0
20260904112954 79 101 1.0 2.0 0.00 0.00 0.00 88 1014.0
20260904112455 79 126 1.0 2.0 0.00 0.00 0.00 88 1014.0
20260904111954 79 82 0.0 1.0 0.00 0.00 0.00 88 1014.0
20260904111455 79 360 0.0 0.0 0.00 0.00 0.00 88 1014.0
20260904111002 79 112 0.0 2.0 0.00 0.00 0.00 88 1014.0
20260904110455 79 109 0.0 2.0 0.00 0.00 0.00 87 1014.0
20260904105956 79 98 1.0 2.0 0.00 0.00 0.00 87 1014.0
20260904105454 79 129 1.0 2.0 0.00 0.00 0.00 87 1014.0
20260904104954 79 160 1.0 2.0 0.00 0.00 0.00 87 1014.0
20260904104454 80 114 1.0 3.0 0.00 0.00 0.00 87 1014.0